GORIZONT 33 [-]

Last updated on June 27, 2019, 3:44 a.m. UTC

1 26372U 00029A   19176.91716198 -.00000278  00000-0  00000+0 0  9994
2 26372  12.4903  25.6143 0003408 349.3779 189.2722  1.00216208 69869
UTC
Height (km)
Latitude
Longitude
Inclination
Orbital Period
UTC large
Height (km)
Speed (km/s)
/
Latitude / Longitude
Inclination (degrees)
Orbital Period (minutes)
Azimuth
Elevation
Range (km)
Doppler Factor
iOS Compass Heading
iOS Angle

Next 30 passes for location: Hong Kong

Rise time Rise Azimuth (degrees) Set time Set Azimuth (degrees) Duration Max altitude (degrees)

No matching passes for this satellites